Location: Austin
(30.3000°N, 97.7500°W)
Time: 06:18:15
(UTC-05:00)

USA 229 DEB - Pass Details

Date: 16 June 2025
Orbit: 852 x 1359 km, 63.4° (Epoch: 26 June)

Event Time Altitude Azimuth Distance (km) Brightness Sun altitude
Rises 03:30:12 0° 331° (NNW) 4,104 7.1 -29.3°
Reaches altitude 10° 03:32:52 10° 332° (NNW) 3,199 6.5 -29.0°
Maximum altitude 03:40:46 85° 62° (ENE) 1,323 4.1 -28.1°
Enters shadow 03:47:53 16° 150° (SSE) 2,969 5.8 -27.2°
